Time,TemperatureF,DewpointF,PressureIn,WindDirection,WindDirectionDegrees,WindSpeedMPH,WindSpeedGustMPH,Humidity,HourlyPrecipIn,Conditions,Clouds,dailyrainin,SoftwareType,DateUTC
2013-04-16 00:09:00,53.9,42.0,29.69,NNE,31,9.0,14.0,64,0.00,,,0.00,weatherlink.com 1.10,2013-04-16 06:09:00,
2013-04-16 00:24:00,53.4,42.0,29.70,NE,38,6.0,13.0,65,0.00,,,0.00,weatherlink.com 1.10,2013-04-16 06:24:00,
2013-04-16 00:39:00,53.0,42.0,29.70,NNE,32,4.0,11.0,66,0.00,,,0.00,weatherlink.com 1.10,2013-04-16 06:39:00,
2013-04-16 00:54:00,52.3,42.0,29.69,NE,40,7.0,10.0,67,0.00,,,0.00,weatherlink.com 1.10,2013-04-16 06:54:00,
2013-04-16 01:09:00,51.9,42.0,29.69,NNE,31,4.0,8.0,68,0.00,,,0.00,weatherlink.com 1.10,2013-04-16 07:09:00,
2013-04-16 01:24:00,51.5,41.0,29.70,NNE,23,3.0,9.0,68,0.00,,,0.00,weatherlink.com 1.10,2013-04-16 07:24:00,
2013-04-16 01:39:00,51.2,41.0,29.69,NNE,26,1.0,9.0,69,0.00,,,0.00,weatherlink.com 1.10,2013-04-16 07:39:00,
2013-04-16 01:54:00,50.8,41.0,29.69,NNE,26,5.0,8.0,70,0.00,,,0.00,weatherlink.com 1.10,2013-04-16 07:54:00,
2013-04-16 02:10:00,50.1,41.0,29.69,NNE,16,2.0,5.0,72,0.00,,,0.00,weatherlink.com 1.10,2013-04-16 08:10:00,
2013-04-16 02:25:00,49.1,42.0,29.70,NNE,16,2.0,5.0,75,0.00,,,0.00,weatherlink.com 1.10,2013-04-16 08:25:00,
2013-04-16 02:40:00,48.6,41.0,29.69,NNE,16,0.0,2.0,76,0.00,,,0.00,weatherlink.com 1.10,2013-04-16 08:40:00,
2013-04-16 02:55:00,48.3,41.0,29.70,NNE,16,0.0,2.0,76,0.00,,,0.00,weatherlink.com 1.10,2013-04-16 08:55:00,
2013-04-16 03:10:00,47.9,41.0,29.70,NNE,16,1.0,3.0,77,0.00,,,0.00,weatherlink.com 1.10,2013-04-16 09:10:00,
2013-04-16 03:25:00,47.4,41.0,29.72,NW,324,2.0,5.0,79,0.00,,,0.00,weatherlink.com 1.10,2013-04-16 09:25:00,
2013-04-16 03:40:00,46.5,41.0,29.73,NW,318,3.0,10.0,80,0.00,,,0.00,weatherlink.com 1.10,2013-04-16 09:40:00,
2013-04-16 03:55:00,46.7,41.0,29.73,NNW,336,3.0,8.0,81,0.00,,,0.00,weatherlink.com 1.10,2013-04-16 09:55:00,
2013-04-16 04:10:00,47.7,42.0,29.74,North,359,10.0,11.0,79,0.00,,,0.00,weatherlink.com 1.10,2013-04-16 10:10:00,
2013-04-16 04:26:00,47.8,41.0,29.75,North,359,6.0,11.0,78,0.00,,,0.00,weatherlink.com 1.10,2013-04-16 10:26:00,
2013-04-16 04:40:00,47.6,41.0,29.76,NNE,12,10.0,14.0,78,0.00,,,0.00,weatherlink.com 1.10,2013-04-16 10:40:00,
2013-04-16 04:55:00,47.6,41.0,29.77,North,4,7.0,16.0,77,0.00,,,0.00,weatherlink.com 1.10,2013-04-16 10:55:00,
2013-04-16 05:10:00,47.9,41.0,29.78,North,4,10.0,14.0,77,0.00,,,0.00,weatherlink.com 1.10,2013-04-16 11:10:00,
2013-04-16 05:25:00,48.4,41.0,29.78,NNE,16,12.0,14.0,76,0.00,,,0.00,weatherlink.com 1.10,2013-04-16 11:25:00,
2013-04-16 05:40:00,48.6,41.0,29.80,North,11,5.0,14.0,75,0.00,,,0.00,weatherlink.com 1.10,2013-04-16 11:40:00,
2013-04-16 05:55:00,48.6,41.0,29.81,NNE,14,9.0,13.0,75,0.00,,,0.00,weatherlink.com 1.10,2013-04-16 11:55:00,
2013-04-16 06:10:00,48.9,41.0,29.82,North,10,5.0,14.0,75,0.00,,,0.00,weatherlink.com 1.10,2013-04-16 12:10:00,
2013-04-16 06:25:00,49.5,41.0,29.83,NNW,347,10.0,14.0,72,0.00,,,0.00,weatherlink.com 1.10,2013-04-16 12:25:00,
2013-04-16 06:40:00,50.5,40.0,29.85,NNE,31,11.0,17.0,68,0.00,,,0.00,weatherlink.com 1.10,2013-04-16 12:40:00,
2013-04-16 06:55:00,51.2,40.0,29.86,NNE,12,11.0,20.0,66,0.00,,,0.00,weatherlink.com 1.10,2013-04-16 12:55:00,
2013-04-16 07:10:00,51.4,40.0,29.87,NNE,16,12.0,23.0,65,0.00,,,0.00,weatherlink.com 1.10,2013-04-16 13:10:00,
2013-04-16 07:25:00,51.7,40.0,29.88,NNE,29,11.0,18.0,64,0.00,,,0.00,weatherlink.com 1.10,2013-04-16 13:25:00,
2013-04-16 07:40:00,51.8,39.0,29.88,NNE,13,4.0,22.0,62,0.00,,,0.00,weatherlink.com 1.10,2013-04-16 13:40:00,
2013-04-16 07:55:00,51.6,38.0,29.89,NNE,20,15.0,19.0,61,0.00,,,0.00,weatherlink.com 1.10,2013-04-16 13:55:00,
2013-04-16 08:11:00,51.6,38.0,29.90,North,4,10.0,22.0,61,0.00,,,0.00,weatherlink.com 1.10,2013-04-16 14:11:00,
2013-04-16 08:26:00,51.9,39.0,29.91,NNE,16,6.0,21.0,62,0.00,,,0.00,weatherlink.com 1.10,2013-04-16 14:26:00,
2013-04-16 08:41:00,52.3,39.0,29.91,NNW,344,18.0,18.0,61,0.00,,,0.00,weatherlink.com 1.10,2013-04-16 14:41:00,
2013-04-16 08:56:00,52.2,39.0,29.92,North,359,9.0,21.0,61,0.00,,,0.00,weatherlink.com 1.10,2013-04-16 14:56:00,
2013-04-16 09:11:00,52.4,39.0,29.92,NNE,29,11.0,20.0,61,0.00,,,0.00,weatherlink.com 1.10,2013-04-16 15:11:00,
2013-04-16 09:41:00,52.8,40.0,29.93,NNW,338,15.0,18.0,62,0.00,,,0.00,weatherlink.com 1.10,2013-04-16 15:41:00,
2013-04-16 09:56:00,53.0,41.0,29.93,North,4,11.0,18.0,63,0.00,,,0.00,weatherlink.com 1.10,2013-04-16 15:56:00,
2013-04-16 10:11:00,53.5,41.0,29.94,NNE,27,14.0,17.0,63,0.00,,,0.00,weatherlink.com 1.10,2013-04-16 16:11:00,
2013-04-16 10:26:00,53.9,41.0,29.94,NNE,23,8.0,17.0,63,0.00,,,0.00,weatherlink.com 1.10,2013-04-16 16:26:00,
2013-04-16 10:41:00,54.1,42.0,29.94,North,4,10.0,17.0,63,0.00,,,0.00,weatherlink.com 1.10,2013-04-16 16:41:00,
2013-04-16 11:11:00,55.5,43.0,29.93,NNE,23,10.0,15.0,63,0.00,,,0.00,weatherlink.com 1.10,2013-04-16 17:11:00,
2013-04-16 11:26:00,55.9,43.0,29.93,North,11,9.0,16.0,62,0.00,,,0.00,weatherlink.com 1.10,2013-04-16 17:26:00,
2013-04-16 12:11:00,57.2,45.0,29.91,NNE,21,15.0,17.0,63,0.00,,,0.00,weatherlink.com 1.10,2013-04-16 18:11:00,
2013-04-16 12:26:00,57.8,45.0,29.91,NE,41,8.0,15.0,63,0.00,,,0.00,weatherlink.com 1.10,2013-04-16 18:26:00,
2013-04-16 12:41:00,58.5,46.0,29.91,NE,52,7.0,14.0,63,0.00,,,0.00,weatherlink.com 1.10,2013-04-16 18:41:00,
2013-04-16 12:56:00,59.0,46.0,29.90,NNE,18,13.0,16.0,63,0.00,,,0.00,weatherlink.com 1.10,2013-04-16 18:56:00,
2013-04-16 13:11:00,59.1,46.0,29.90,NNE,28,10.0,16.0,62,0.00,,,0.00,weatherlink.com 1.10,2013-04-16 19:11:00,
2013-04-16 13:26:00,60.0,47.0,29.89,NNE,14,11.0,16.0,62,0.00,,,0.00,weatherlink.com 1.10,2013-04-16 19:26:00,
2013-04-16 13:41:00,60.6,47.0,29.89,NNE,29,13.0,16.0,62,0.00,,,0.00,weatherlink.com 1.10,2013-04-16 19:41:00,
2013-04-16 13:56:00,60.9,48.0,29.88,NE,39,7.0,16.0,62,0.00,,,0.00,weatherlink.com 1.10,2013-04-16 19:56:00,
2013-04-16 14:26:00,61.4,49.0,29.87,NNE,14,11.0,14.0,63,0.00,,,0.00,weatherlink.com 1.10,2013-04-16 20:26:00,
2013-04-16 14:41:00,61.6,49.0,29.87,NNE,23,9.0,16.0,63,0.00,,,0.00,weatherlink.com 1.10,2013-04-16 20:41:00,
2013-04-16 14:56:00,62.3,49.0,29.86,East,81,10.0,17.0,62,0.00,,,0.00,weatherlink.com 1.10,2013-04-16 20:56:00,
2013-04-16 15:11:00,63.2,50.0,29.86,NE,37,12.0,13.0,62,0.00,,,0.00,weatherlink.com 1.10,2013-04-16 21:11:00,
2013-04-16 15:26:00,63.2,49.0,29.86,ENE,62,11.0,16.0,61,0.00,,,0.00,weatherlink.com 1.10,2013-04-16 21:26:00,
2013-04-16 15:41:00,61.9,49.0,29.85,NE,54,5.0,16.0,64,0.00,,,0.00,weatherlink.com 1.10,2013-04-16 21:41:00,
2013-04-16 15:56:00,62.1,50.0,29.83,NE,50,9.0,19.0,64,0.00,,,0.00,weatherlink.com 1.10,2013-04-16 21:56:00,
2013-04-16 16:11:00,61.6,50.0,29.84,ENE,66,4.0,18.0,66,0.00,,,0.00,weatherlink.com 1.10,2013-04-16 22:11:00,
2013-04-16 16:26:00,61.5,50.0,29.84,East,91,8.0,12.0,66,0.00,,,0.00,weatherlink.com 1.10,2013-04-16 22:26:00,
2013-04-16 16:41:00,60.3,50.0,29.85,ENE,66,9.0,12.0,69,0.00,,,0.00,weatherlink.com 1.10,2013-04-16 22:41:00,
2013-04-16 16:56:00,59.6,50.0,29.84,ENE,66,2.0,11.0,70,0.00,,,0.00,weatherlink.com 1.10,2013-04-16 22:56:00,
2013-04-16 17:11:00,59.6,50.0,29.85,NNE,29,7.0,11.0,70,0.00,,,0.00,weatherlink.com 1.10,2013-04-16 23:11:00,
2013-04-16 17:41:00,58.7,50.0,29.85,NE,44,4.0,12.0,72,0.00,,,0.00,weatherlink.com 1.10,2013-04-16 23:41:00,
2013-04-16 17:56:00,58.7,50.0,29.85,NNE,23,9.0,11.0,72,0.00,,,0.00,weatherlink.com 1.10,2013-04-16 23:56:00,
2013-04-16 18:11:00,57.8,50.0,29.85,NNE,14,12.0,14.0,74,0.00,,,0.00,weatherlink.com 1.10,2013-04-17 00:11:00,
2013-04-16 18:26:00,56.9,49.0,29.85,NNE,31,9.0,15.0,76,0.00,,,0.00,weatherlink.com 1.10,2013-04-17 00:26:00,
2013-04-16 18:41:00,56.4,49.0,29.85,NE,44,8.0,16.0,76,0.00,,,0.00,weatherlink.com 1.10,2013-04-17 00:41:00,
2013-04-16 18:56:00,55.6,49.0,29.84,NE,52,6.0,16.0,77,0.00,,,0.00,weatherlink.com 1.10,2013-04-17 00:56:00,
2013-04-16 19:11:00,55.0,48.0,29.84,ENE,58,8.0,17.0,78,0.00,,,0.00,weatherlink.com 1.10,2013-04-17 01:11:00,
2013-04-16 19:26:00,54.6,48.0,29.84,ENE,72,9.0,15.0,79,0.00,,,0.00,weatherlink.com 1.10,2013-04-17 01:26:00,
2013-04-16 19:41:00,54.4,48.0,29.84,NE,48,7.0,14.0,80,0.00,,,0.00,weatherlink.com 1.10,2013-04-17 01:41:00,
2013-04-16 19:56:00,54.2,48.0,29.84,NE,50,8.0,14.0,80,0.00,,,0.00,weatherlink.com 1.10,2013-04-17 01:56:00,
2013-04-16 20:11:00,53.9,49.0,29.84,NE,53,5.0,14.0,82,0.00,,,0.00,weatherlink.com 1.10,2013-04-17 02:11:00,
2013-04-16 20:26:00,53.4,49.0,29.84,ENE,74,12.0,14.0,84,0.00,,,0.00,weatherlink.com 1.10,2013-04-17 02:26:00,
2013-04-16 20:41:00,52.6,49.0,29.84,NE,50,6.0,14.0,86,0.00,,,0.00,weatherlink.com 1.10,2013-04-17 02:41:00,
2013-04-16 20:56:00,52.7,48.0,29.85,ENE,64,2.0,13.0,85,0.00,,,0.00,weatherlink.com 1.10,2013-04-17 02:56:00,
2013-04-16 21:11:00,52.8,48.0,29.85,ENE,77,10.0,12.0,85,0.00,,,0.00,weatherlink.com 1.10,2013-04-17 03:11:00,
2013-04-16 21:26:00,52.6,48.0,29.86,NE,37,8.0,12.0,85,0.00,,,0.00,weatherlink.com 1.10,2013-04-17 03:26:00,
2013-04-16 21:41:00,52.1,48.0,29.86,NE,54,5.0,8.0,85,0.00,,,0.00,weatherlink.com 1.10,2013-04-17 03:41:00,
2013-04-16 21:56:00,51.8,48.0,29.85,ENE,60,4.0,9.0,86,0.00,,,0.00,weatherlink.com 1.10,2013-04-17 03:56:00,
2013-04-16 22:11:00,51.4,47.0,29.84,ENE,63,3.0,10.0,86,0.00,,,0.00,weatherlink.com 1.10,2013-04-17 04:11:00,
2013-04-16 22:26:00,51.2,48.0,29.84,ENE,75,3.0,10.0,87,0.00,,,0.00,weatherlink.com 1.10,2013-04-17 04:26:00,
2013-04-16 22:41:00,50.8,47.0,29.84,NE,53,3.0,8.0,87,0.00,,,0.00,weatherlink.com 1.10,2013-04-17 04:41:00,
2013-04-16 22:56:00,50.7,47.0,29.84,NE,48,3.0,8.0,88,0.00,,,0.00,weatherlink.com 1.10,2013-04-17 04:56:00,
2013-04-16 23:11:00,50.7,47.0,29.84,NE,35,0.0,6.0,88,0.00,,,0.00,weatherlink.com 1.10,2013-04-17 05:11:00,
2013-04-16 23:26:00,50.6,48.0,29.85,NE,34,2.0,7.0,89,0.00,,,0.00,weatherlink.com 1.10,2013-04-17 05:26:00,
2013-04-16 23:41:00,50.7,48.0,29.84,NE,35,6.0,7.0,89,0.00,,,0.00,weatherlink.com 1.10,2013-04-17 05:41:00,
2013-04-16 23:56:00,50.7,48.0,29.84,NNE,29,1.0,7.0,90,0.00,,,0.00,weatherlink.com 1.10,2013-04-17 05:56:00,